Hourly Data Report for September 22, 2021

WINNIPEG THE FORKS
MANITOBA
Current Station Operator: ECCC - MSC

49°53'18.008" N
97°07'46.007" W
230.00 m
5023262
71579
XWN

Download Data

Hourly Data (September 2021)
Hourly Data Report for September 22, 2021
TIME
LST
Temp Definition
°C
Dew Point Definition
°C
Rel Hum Definition
%
Precip. Amount Definition
mm

Wind Dir Definition
10's deg

Wind Spd Definition
km/h
Visibility Definition
km
Stn Press Definition
kPa
Hmdx Definition


Wind Chill Definition


Weather Definition


00:00 12.9 6.1 64 0.0 21 7   99.34     LegendNANA
01:00 12.3 6.5 68 0.0 19 5   99.31     LegendNANA
02:00 11.4 6.3 71 0.0 21 6   99.29     LegendNANA
03:00 10.5 6.3 75 0.0 20 5   99.27     LegendNANA
04:00 9.1 6.1 82 0.0 20 1   99.26     LegendNANA
05:00 8.2 5.8 85 0.0 19 5   99.24     LegendNANA
06:00 7.8 5.4 85 0.0 20 4   99.22     LegendNANA
07:00 7.8 5.2 84 0.0 20 5   99.18     LegendNANA
08:00 10.9 5.8 71 0.0 21 9   99.13     LegendNANA
09:00 13.2 6.3 63 0.0 21 8   99.11     LegendNANA
10:00 15.6 6.6 55 0.0 21 4   99.09     LegendNANA
11:00 18.1 6.8 48 0.0 21 6   99.03     LegendNANA
12:00 20.5 7.2 42 0.0 20 4   98.93     LegendNANA
13:00 22.1 5.9 35 0.0 20 7   98.82     LegendNANA
14:00 23.9 6.5 33 0.0 21 7   98.73     LegendNANA
15:00 24.2 5.5 30 0.0 20 14   98.67     LegendNANA
16:00 24.7 4.2 26 0.0 20 11   98.61     LegendNANA
17:00 24.0 3.8 27 0.0 20 8   98.55     LegendNANA
18:00 23.0 4.4 30 0.0 20 6   98.52     LegendNANA
19:00 21.8 4.4 32 0.0 19 6   98.50     LegendNANA
20:00 20.5 4.5 35 0.0 21 8   98.47     LegendNANA
21:00 19.7 5.2 39 0.0 20 10   98.46     LegendNANA
22:00 18.8 5.5 42 0.0 21 10   98.45     LegendNANA
23:00 16.9 6.3 50 0.0 21 10   98.42     LegendNANA

Notes on Data Quality.

Legend

  • E = Estimated
  • M = Missing
  • NA = Not Available*
  • [empty] = Indicates an unobserved value
Date modified: